LAPAN-A2 (40931 NORAD) Tracking and Keplerian Element Data

This shows tracking and keplerian element data for the satellite.

Feedback or suggestion? Click here.




ElementValue
Catalog40931
NameLAPAN-A2
Epoch Orbit44732
Epoch Day6.28856983
Epoch Year2024
RAAN76.3799
Inclination6.0004
Eccentricity0.0013541
Argument of Perigee291.8204
Mean Anonmoly68.0484
Mean Motion14.77555377
Decay Rate1.263E-05
L11 40931U 15052B 24006.28856983 .00001263 00000+0 84248-4 0 9992
L22 40931 6.0004 76.3799 0013541 291.8204 68.0484 14.77555377447321



Live tracking and technical data element details for LAPAN-A2 (NORAD 40931). LAPAN-A2 can be tracked NOW for your location showing map with azimuth and elevation plus other details from your city location.







IsCatalogInMostPopularTable: catalog: 40931, numindb: 716
Update: records affected: 1



GetName: 40931 LAPAN-A2

Hit Count: updated at: Fri, 19 Apr 2024 12:29:08 GMT